| time (UTC) | temp F | wind direction | speed MPH | gust MPH | rain 1hr in | rain 24hr in | rain mn in | humidity % | barometer mb |
| 20260906224629 | 71 | 31 | 1.0 | 3.0 | 0.00 | 0.00 | 0.00 | 28 | 1013.3 |
| 20260906224027 | 71 | 239 | 0.0 | 3.0 | 0.00 | 0.00 | 0.00 | 31 | 1013.3 |
| 20260906223531 | 71 | 128 | 0.0 | 3.0 | 0.00 | 0.00 | 0.00 | 32 | 1013.3 |
| 20260906223104 | 71 | 195 | 0.0 | 3.0 | 0.00 | 0.00 | 0.00 | 30 | 1013.3 |
| 20260906222529 | 71 | 10 | 1.0 | 3.0 | 0.00 | 0.00 | 0.00 | 32 | 1013.3 |
| 20260906222028 | 71 | 43 | 0.0 | 2.0 | 0.00 | 0.00 | 0.00 | 32 | 1013.3 |
| 20260906221631 | 71 | 63 | 0.0 | 2.0 | 0.00 | 0.00 | 0.00 | 34 | 1013.4 |
| 20260906221029 | 71 | 360 | 1.0 | 2.0 | 0.00 | 0.00 | 0.00 | 33 | 1013.4 |
| 20260906220528 | 71 | 335 | 0.0 | 2.0 | 0.00 | 0.00 | 0.00 | 33 | 1013.4 |
| 20260906220136 | 70 | 126 | 0.0 | 5.0 | 0.00 | 0.00 | 0.00 | 33 | 1013.5 |
| 20260906215529 | 70 | 242 | 0.0 | 5.0 | 0.00 | 0.00 | 0.00 | 35 | 1013.5 |
| 20260906215046 | 71 | 43 | 1.0 | 3.0 | 0.00 | 0.00 | 0.00 | 33 | 1013.4 |
| 20260906214627 | 71 | 285 | 1.0 | 4.0 | 0.00 | 0.00 | 0.00 | 34 | 1013.6 |
| 20260906214045 | 71 | 84 | 1.0 | 4.0 | 0.00 | 0.00 | 0.00 | 33 | 1013.6 |
| 20260906213547 | 71 | 111 | 0.0 | 4.0 | 0.00 | 0.00 | 0.00 | 33 | 1013.4 |
| 20260906213107 | 72 | 180 | 1.0 | 4.0 | 0.00 | 0.00 | 0.00 | 33 | 1013.6 |
| 20260906212537 | 72 | 83 | 2.0 | 4.0 | 0.00 | 0.00 | 0.00 | 31 | 1013.5 |
| 20260906212033 | 72 | 69 | 0.0 | 6.0 | 0.00 | 0.00 | 0.00 | 30 | 1013.5 |
| 20260906211602 | 72 | 103 | 1.0 | 4.0 | 0.00 | 0.00 | 0.00 | 28 | 1013.6 |
| 20260906211045 | 73 | 41 | 1.0 | 4.0 | 0.00 | 0.00 | 0.00 | 26 | 1013.6 |
| 20260906210524 | 73 | 24 | 1.0 | 3.0 | 0.00 | 0.00 | 0.00 | 28 | 1013.6 |
| 20260906210126 | 73 | 77 | 0.0 | 4.0 | 0.00 | 0.00 | 0.00 | 31 | 1013.5 |
| 20260906205536 | 73 | 111 | 1.0 | 4.0 | 0.00 | 0.00 | 0.00 | 32 | 1013.6 |
| 20260906205045 | 73 | 13 | 1.0 | 3.0 | 0.00 | 0.00 | 0.00 | 30 | 1013.6 |
| 20260906204608 | 73 | 78 | 1.0 | 3.0 | 0.00 | 0.00 | 0.00 | 32 | 1013.5 |
| 20260906204029 | 73 | 22 | 0.0 | 3.0 | 0.00 | 0.00 | 0.00 | 30 | 1013.6 |
| 20260906203532 | 73 | 180 | 1.0 | 3.0 | 0.00 | 0.00 | 0.00 | 32 | 1013.8 |
| 20260906203128 | 72 | 39 | 1.0 | 3.0 | 0.00 | 0.00 | 0.00 | 32 | 1013.9 |
| 20260906202524 | 73 | 13 | 1.0 | 3.0 | 0.00 | 0.00 | 0.00 | 29 | 1013.8 |
| 20260906202045 | 73 | 261 | 0.0 | 3.0 | 0.00 | 0.00 | 0.00 | 31 | 1014.0 |
| 20260906201607 | 73 | 38 | 1.0 | 3.0 | 0.00 | 0.00 | 0.00 | 35 | 1014.0 |
| 20260906201038 | 72 | 5 | 0.0 | 2.0 | 0.00 | 0.00 | 0.00 | 35 | 1014.0 |
| 20260906200531 | 72 | 27 | 0.0 | 2.0 | 0.00 | 0.00 | 0.00 | 36 | 1014.1 |
| 20260906200130 | 72 | 329 | 0.0 | 2.0 | 0.00 | 0.00 | 0.00 | 35 | 1014.2 |
| 20260906195546 | 72 | 342 | 1.0 | 4.0 | 0.00 | 0.00 | 0.00 | 36 | 1014.3 |
| 20260906195032 | 72 | 92 | 1.0 | 4.0 | 0.00 | 0.00 | 0.00 | 34 | 1014.2 |
| 20260906194623 | 71 | 86 | 0.0 | 4.0 | 0.00 | 0.00 | 0.00 | 36 | 1014.2 |
| 20260906194032 | 71 | 49 | 1.0 | 4.0 | 0.00 | 0.00 | 0.00 | 36 | 1014.3 |
| 20260906193525 | 71 | 129 | 0.0 | 4.0 | 0.00 | 0.00 | 0.00 | 37 | 1014.4 |
| 20260906193128 | 72 | 46 | 0.0 | 5.0 | 0.00 | 0.00 | 0.00 | 37 | 1014.5 |
| 20260906192531 | 72 | 360 | 2.0 | 5.0 | 0.00 | 0.00 | 0.00 | 37 | 1014.6 |
| 20260906192025 | 72 | 15 | 1.0 | 6.0 | 0.00 | 0.00 | 0.00 | 36 | 1014.5 |
| 20260906191637 | 71 | 157 | 2.0 | 6.0 | 0.00 | 0.00 | 0.00 | 38 | 1014.7 |
| 20260906191031 | 71 | 350 | 1.0 | 4.0 | 0.00 | 0.00 | 0.00 | 37 | 1014.7 |
| 20260906190539 | 70 | 59 | 0.0 | 4.0 | 0.00 | 0.00 | 0.00 | 40 | 1014.9 |
| 20260906190134 | 70 | 72 | 1.0 | 4.0 | 0.00 | 0.00 | 0.00 | 38 | 1015.0 |
| 20260906185547 | 70 | 70 | 0.0 | 4.0 | 0.00 | 0.00 | 0.00 | 43 | 1015.1 |
| 20260906185018 | 70 | 108 | 1.0 | 4.0 | 0.00 | 0.00 | 0.00 | 41 | 1015.1 |
| 20260906184629 | 70 | 360 | 1.0 | 3.0 | 0.00 | 0.00 | 0.00 | 43 | 1015.3 |
| 20260906184045 | 69 | 38 | 0.0 | 3.0 | 0.00 | 0.00 | 0.00 | 44 | 1015.3 |
| 20260906183540 | 69 | 53 | 1.0 | 4.0 | 0.00 | 0.00 | 0.00 | 44 | 1015.5 |
| 20260906183134 | 69 | 61 | 1.0 | 4.0 | 0.00 | 0.00 | 0.00 | 42 | 1015.5 |
| 20260906182531 | 68 | 154 | 0.0 | 3.0 | 0.00 | 0.00 | 0.00 | 43 | 1015.6 |
| 20260906182028 | 67 | 97 | 0.0 | 4.0 | 0.00 | 0.00 | 0.00 | 45 | 1015.7 |
| 20260906181613 | 67 | 315 | 1.0 | 5.0 | 0.00 | 0.00 | 0.00 | 42 | 1015.7 |
| 20260906181041 | 66 | 170 | 2.0 | 5.0 | 0.00 | 0.00 | 0.00 | 45 | 1015.6 |
| 20260906180531 | 66 | 232 | 2.0 | 4.0 | 0.00 | 0.00 | 0.00 | 44 | 1015.6 |
| 20260906180140 | 65 | 81 | 1.0 | 4.0 | 0.00 | 0.00 | 0.00 | 45 | 1015.7 |
| 20260906175524 | 65 | 303 | 1.0 | 4.0 | 0.00 | 0.00 | 0.00 | 45 | 1015.8 |
| 20260906175036 | 65 | 327 | 1.0 | 4.0 | 0.00 | 0.00 | 0.00 | 46 | 1015.8 |
| 20260906174609 | 65 | 36 | 1.0 | 4.0 | 0.00 | 0.00 | 0.00 | 47 | 1016.1 |
| 20260906174025 | 64 | 130 | 0.0 | 3.0 | 0.00 | 0.00 | 0.00 | 52 | 1016.0 |
| 20260906173540 | 64 | 91 | 0.0 | 3.0 | 0.00 | 0.00 | 0.00 | 49 | 1016.1 |
| 20260906173118 | 63 | 110 | 0.0 | 3.0 | 0.00 | 0.00 | 0.00 | 50 | 1016.2 |
| 20260906172539 | 62 | 225 | 0.0 | 3.0 | 0.00 | 0.00 | 0.00 | 52 | 1016.3 |
| 20260906172042 | 61 | 89 | 1.0 | 5.0 | 0.00 | 0.00 | 0.00 | 52 | 1016.3 |
| 20260906171624 | 61 | 153 | 2.0 | 5.0 | 0.00 | 0.00 | 0.00 | 53 | 1016.3 |
| 20260906171025 | 61 | 188 | 1.0 | 5.0 | 0.00 | 0.00 | 0.00 | 51 | 1016.4 |
| 20260906170534 | 61 | 110 | 0.0 | 4.0 | 0.00 | 0.00 | 0.00 | 53 | 1016.5 |
| 20260906170124 | 60 | 27 | 0.0 | 4.0 | 0.00 | 0.00 | 0.00 | 53 | 1016.3 |
| 20260906165543 | 59 | 53 | 0.0 | 3.0 | 0.00 | 0.00 | 0.00 | 57 | 1016.5 |
| 20260906165114 | 58 | 38 | 0.0 | 4.0 | 0.00 | 0.00 | 0.00 | 56 | 1016.6 |
| 20260906164634 | 57 | 161 | 1.0 | 4.0 | 0.00 | 0.00 | 0.00 | 59 | 1016.6 |
| 20260906164020 | 57 | 167 | 0.0 | 3.0 | 0.00 | 0.00 | 0.00 | 57 | 1016.6 |
| 20260906163517 | 56 | 163 | 1.0 | 3.0 | 0.00 | 0.00 | 0.00 | 58 | 1016.6 |
| 20260906163109 | 56 | 175 | 0.0 | 3.0 | 0.00 | 0.00 | 0.00 | 58 | 1016.7 |
| 20260906162538 | 55 | 155 | 1.0 | 3.0 | 0.00 | 0.00 | 0.00 | 61 | 1016.8 |
| 20260906162021 | 55 | 302 | 1.0 | 3.0 | 0.00 | 0.00 | 0.00 | 60 | 1016.7 |
| 20260906161635 | 54 | 238 | 0.0 | 3.0 | 0.00 | 0.00 | 0.00 | 62 | 1016.8 |
| 20260906161033 | 54 | 78 | 1.0 | 3.0 | 0.00 | 0.00 | 0.00 | 62 | 1017.0 |
| 20260906160517 | 53 | 330 | 0.0 | 0.0 | 0.00 | 0.00 | 0.00 | 64 | 1017.0 |
| 20260906155528 | 52 | 304 | 0.0 | 3.0 | 0.00 | 0.00 | 0.00 | 66 | 1017.0 |
| 20260906155041 | 52 | 321 | 0.0 | 3.0 | 0.00 | 0.00 | 0.00 | 68 | 1017.1 |
| 20260906154605 | 52 | 291 | 0.0 | 3.0 | 0.00 | 0.00 | 0.00 | 68 | 1017.1 |
| 20260906154018 | 51 | 306 | 0.0 | 3.0 | 0.00 | 0.00 | 0.00 | 69 | 1017.2 |
| 20260906153519 | 50 | 307 | 1.0 | 3.0 | 0.00 | 0.00 | 0.00 | 70 | 1017.1 |
| 20260906153131 | 49 | 217 | 0.0 | 1.0 | 0.00 | 0.00 | 0.00 | 74 | 1017.4 |
| 20260906152545 | 49 | 215 | 0.0 | 2.0 | 0.00 | 0.00 | 0.00 | 73 | 1017.4 |
| 20260906152028 | 48 | 208 | 1.0 | 2.0 | 0.00 | 0.00 | 0.00 | 75 | 1017.4 |
| 20260906151608 | 48 | 261 | 0.0 | 0.0 | 0.00 | 0.00 | 0.00 | 77 | 1017.4 |
| 20260906151038 | 48 | 250 | 0.0 | 2.0 | 0.00 | 0.00 | 0.00 | 78 | 1017.6 |
| 20260906150521 | 47 | 252 | 0.0 | 2.0 | 0.00 | 0.00 | 0.00 | 77 | 1017.8 |
| 20260906150059 | 47 | 263 | 0.0 | 0.0 | 0.00 | 0.00 | 0.00 | 78 | 1017.9 |
| 20260906145525 | 46 | 232 | 0.0 | 0.0 | 0.00 | 0.00 | 0.00 | 79 | 1017.9 |
| 20260906145032 | 46 | 236 | 0.0 | 0.0 | 0.00 | 0.00 | 0.00 | 80 | 1017.9 |
| 20260906144604 | 46 | 229 | 0.0 | 1.0 | 0.00 | 0.00 | 0.00 | 82 | 1017.8 |
| 20260906144027 | 45 | 229 | 0.0 | 1.0 | 0.00 | 0.00 | 0.00 | 82 | 1017.8 |
| 20260906143538 | 45 | 229 | 0.0 | 3.0 | 0.00 | 0.00 | 0.00 | 81 | 1017.9 |
| 20260906143040 | 45 | 223 | 0.0 | 3.0 | 0.00 | 0.00 | 0.00 | 83 | 1018.0 |
| 20260906142519 | 44 | 237 | 1.0 | 3.0 | 0.00 | 0.00 | 0.00 | 84 | 1017.8 |
| 20260906142035 | 44 | 237 | 1.0 | 3.0 | 0.00 | 0.00 | 0.00 | 85 | 1018.0 |
| 20260906141625 | 43 | 236 | 0.0 | 4.0 | 0.00 | 0.00 | 0.00 | 85 | 1018.0 |
| 20260906141023 | 43 | 246 | 1.0 | 4.0 | 0.00 | 0.00 | 0.00 | 86 | 1017.9 |
| 20260906140524 | 43 | 252 | 0.0 | 4.0 | 0.00 | 0.00 | 0.00 | 86 | 1017.9 |
| 20260906140117 | 43 | 248 | 1.0 | 3.0 | 0.00 | 0.00 | 0.00 | 86 | 1017.9 |
| 20260906135542 | 43 | 244 | 2.0 | 3.0 | 0.00 | 0.00 | 0.00 | 86 | 1017.9 |
| 20260906135027 | 43 | 277 | 1.0 | 4.0 | 0.00 | 0.00 | 0.00 | 85 | 1017.9 |
| 20260906134602 | 43 | 250 | 1.0 | 3.0 | 0.00 | 0.00 | 0.00 | 85 | 1018.0 |
| 20260906134021 | 43 | 228 | 2.0 | 3.0 | 0.00 | 0.00 | 0.00 | 85 | 1018.0 |
| 20260906133537 | 43 | 229 | 2.0 | 3.0 | 0.00 | 0.00 | 0.00 | 86 | 1018.1 |
| 20260906133056 | 43 | 242 | 1.0 | 3.0 | 0.00 | 0.00 | 0.00 | 86 | 1018.2 |
| 20260906132532 | 43 | 244 | 1.0 | 3.0 | 0.00 | 0.00 | 0.00 | 87 | 1018.2 |
| 20260906132031 | 43 | 254 | 0.0 | 0.0 | 0.00 | 0.00 | 0.00 | 86 | 1018.3 |
| 20260906131621 | 43 | 259 | 0.0 | 0.0 | 0.00 | 0.00 | 0.00 | 86 | 1018.2 |
| 20260906131039 | 43 | 260 | 0.0 | 2.0 | 0.00 | 0.00 | 0.00 | 86 | 1018.2 |
| 20260906130535 | 43 | 260 | 0.0 | 3.0 | 0.00 | 0.00 | 0.00 | 86 | 1018.2 |
| 20260906130126 | 43 | 257 | 0.0 | 4.0 | 0.00 | 0.00 | 0.00 | 86 | 1018.3 |
| 20260906125530 | 43 | 248 | 0.0 | 4.0 | 0.00 | 0.00 | 0.00 | 85 | 1018.3 |
| 20260906125018 | 43 | 250 | 1.0 | 3.0 | 0.00 | 0.00 | 0.00 | 84 | 1018.3 |
| 20260906124618 | 43 | 229 | 2.0 | 3.0 | 0.00 | 0.00 | 0.00 | 85 | 1018.3 |
| 20260906124033 | 44 | 245 | 1.0 | 3.0 | 0.00 | 0.00 | 0.00 | 85 | 1018.3 |
| 20260906123525 | 44 | 245 | 1.0 | 3.0 | 0.00 | 0.00 | 0.00 | 84 | 1018.3 |
| 20260906123056 | 44 | 248 | 1.0 | 4.0 | 0.00 | 0.00 | 0.00 | 84 | 1018.4 |
| 20260906122519 | 44 | 236 | 2.0 | 4.0 | 0.00 | 0.00 | 0.00 | 84 | 1018.4 |
| 20260906122018 | 44 | 255 | 2.0 | 3.0 | 0.00 | 0.00 | 0.00 | 85 | 1018.4 |
| 20260906121606 | 44 | 250 | 1.0 | 3.0 | 0.00 | 0.00 | 0.00 | 84 | 1018.5 |
| 20260906121043 | 44 | 249 | 1.0 | 3.0 | 0.00 | 0.00 | 0.00 | 84 | 1018.6 |
| 20260906120528 | 44 | 242 | 1.0 | 3.0 | 0.00 | 0.00 | 0.00 | 84 | 1018.5 |
| 20260906120128 | 44 | 228 | 1.0 | 3.0 | 0.00 | 0.00 | 0.00 | 84 | 1018.5 |
| 20260906115518 | 44 | 228 | 1.0 | 3.0 | 0.00 | 0.00 | 0.00 | 84 | 1018.5 |
| 20260906115028 | 44 | 227 | 2.0 | 3.0 | 0.00 | 0.00 | 0.00 | 84 | 1018.5 |
| 20260906114630 | 44 | 238 | 2.0 | 3.0 | 0.00 | 0.00 | 0.00 | 84 | 1018.4 |
| 20260906114032 | 44 | 244 | 1.0 | 3.0 | 0.00 | 0.00 | 0.00 | 84 | 1018.4 |
| 20260906113528 | 44 | 229 | 2.0 | 4.0 | 0.00 | 0.00 | 0.00 | 84 | 1018.4 |
| 20260906113129 | 44 | 246 | 1.0 | 3.0 | 0.00 | 0.00 | 0.00 | 84 | 1018.5 |
| 20260906112539 | 44 | 241 | 2.0 | 3.0 | 0.00 | 0.00 | 0.00 | 84 | 1018.4 |
| 20260906112034 | 44 | 237 | 2.0 | 3.0 | 0.00 | 0.00 | 0.00 | 84 | 1018.5 |
| 20260906111618 | 44 | 248 | 1.0 | 3.0 | 0.00 | 0.00 | 0.00 | 84 | 1018.5 |
| 20260906111020 | 44 | 248 | 1.0 | 3.0 | 0.00 | 0.00 | 0.00 | 83 | 1018.5 |
| 20260906110531 | 44 | 232 | 2.0 | 3.0 | 0.00 | 0.00 | 0.00 | 84 | 1018.5 |
| 20260906110125 | 44 | 240 | 2.0 | 3.0 | 0.00 | 0.00 | 0.00 | 84 | 1018.5 |
| 20260906105543 | 44 | 252 | 1.0 | 2.0 | 0.00 | 0.00 | 0.00 | 84 | 1018.6 |
| 20260906105027 | 44 | 252 | 0.0 | 3.0 | 0.00 | 0.00 | 0.00 | 83 | 1018.7 |
| 20260906104600 | 45 | 249 | 1.0 | 3.0 | 0.00 | 0.00 | 0.00 | 83 | 1018.7 |
| 20260906104021 | 45 | 244 | 2.0 | 3.0 | 0.00 | 0.00 | 0.00 | 83 | 1018.7 |
| 20260906103541 | 45 | 244 | 2.0 | 3.0 | 0.00 | 0.00 | 0.00 | 83 | 1018.8 |
| 20260906103045 | 45 | 231 | 2.0 | 3.0 | 0.00 | 0.00 | 0.00 | 84 | 1018.7 |
| 20260906102538 | 45 | 211 | 2.0 | 3.0 | 0.00 | 0.00 | 0.00 | 84 | 1018.8 |
| 20260906102041 | 45 | 243 | 2.0 | 3.0 | 0.00 | 0.00 | 0.00 | 83 | 1018.8 |
| 20260906101629 | 45 | 246 | 2.0 | 3.0 | 0.00 | 0.00 | 0.00 | 83 | 1018.8 |
| 20260906101032 | 45 | 246 | 1.0 | 3.0 | 0.00 | 0.00 | 0.00 | 82 | 1018.9 |
| 20260906100540 | 45 | 244 | 1.0 | 3.0 | 0.00 | 0.00 | 0.00 | 83 | 1018.8 |
| 20260906100131 | 45 | 250 | 1.0 | 4.0 | 0.00 | 0.00 | 0.00 | 83 | 1018.8 |
| 20260906095538 | 45 | 248 | 2.0 | 3.0 | 0.00 | 0.00 | 0.00 | 82 | 1018.8 |
| 20260906095023 | 45 | 250 | 1.0 | 3.0 | 0.00 | 0.00 | 0.00 | 82 | 1018.8 |
| 20260906094559 | 45 | 247 | 1.0 | 3.0 | 0.00 | 0.00 | 0.00 | 82 | 1018.9 |
| 20260906094045 | 46 | 228 | 1.0 | 3.0 | 0.00 | 0.00 | 0.00 | 82 | 1018.9 |
| 20260906093533 | 45 | 247 | 1.0 | 4.0 | 0.00 | 0.00 | 0.00 | 82 | 1018.9 |
| 20260906093124 | 46 | 227 | 2.0 | 4.0 | 0.00 | 0.00 | 0.00 | 82 | 1018.9 |
| 20260906092524 | 46 | 238 | 2.0 | 3.0 | 0.00 | 0.00 | 0.00 | 82 | 1018.9 |
| 20260906092018 | 46 | 247 | 2.0 | 3.0 | 0.00 | 0.00 | 0.00 | 81 | 1019.0 |
| 20260906091624 | 46 | 232 | 2.0 | 3.0 | 0.00 | 0.00 | 0.00 | 82 | 1018.9 |
| 20260906091019 | 46 | 241 | 2.0 | 3.0 | 0.00 | 0.00 | 0.00 | 81 | 1018.9 |
| 20260906090527 | 46 | 247 | 1.0 | 3.0 | 0.00 | 0.00 | 0.00 | 82 | 1019.1 |
| 20260906090126 | 46 | 248 | 1.0 | 3.0 | 0.00 | 0.00 | 0.00 | 82 | 1019.1 |
| 20260906085526 | 46 | 261 | 0.0 | 4.0 | 0.00 | 0.00 | 0.00 | 82 | 1019.2 |
| 20260906085023 | 46 | 246 | 1.0 | 4.0 | 0.00 | 0.00 | 0.00 | 81 | 1019.1 |
| 20260906084626 | 46 | 236 | 2.0 | 4.0 | 0.00 | 0.00 | 0.00 | 81 | 1019.2 |
| 20260906084027 | 46 | 283 | 1.0 | 3.0 | 0.00 | 0.00 | 0.00 | 80 | 1019.3 |
| 20260906083537 | 46 | 273 | 1.0 | 2.0 | 0.00 | 0.00 | 0.00 | 81 | 1019.3 |
| 20260906083121 | 47 | 273 | 1.0 | 3.0 | 0.00 | 0.00 | 0.00 | 81 | 1019.3 |
| 20260906082518 | 47 | 253 | 2.0 | 3.0 | 0.00 | 0.00 | 0.00 | 81 | 1019.4 |
| 20260906082036 | 47 | 246 | 2.0 | 3.0 | 0.00 | 0.00 | 0.00 | 80 | 1019.4 |
| 20260906081633 | 47 | 234 | 2.0 | 3.0 | 0.00 | 0.00 | 0.00 | 81 | 1019.4 |
| 20260906081028 | 47 | 263 | 1.0 | 3.0 | 0.00 | 0.00 | 0.00 | 80 | 1019.4 |
| 20260906080527 | 47 | 267 | 1.0 | 3.0 | 0.00 | 0.00 | 0.00 | 80 | 1019.4 |
| 20260906080132 | 47 | 257 | 1.0 | 3.0 | 0.00 | 0.00 | 0.00 | 80 | 1019.4 |
| 20260906075539 | 47 | 249 | 1.0 | 3.0 | 0.00 | 0.00 | 0.00 | 79 | 1019.4 |
| 20260906075024 | 47 | 236 | 2.0 | 4.0 | 0.00 | 0.00 | 0.00 | 79 | 1019.4 |
| 20260906074625 | 47 | 227 | 2.0 | 4.0 | 0.00 | 0.00 | 0.00 | 79 | 1019.4 |
| 20260906074040 | 47 | 246 | 1.0 | 3.0 | 0.00 | 0.00 | 0.00 | 79 | 1019.5 |
| 20260906073538 | 48 | 233 | 2.0 | 4.0 | 0.00 | 0.00 | 0.00 | 79 | 1019.5 |
| 20260906073105 | 48 | 228 | 2.0 | 4.0 | 0.00 | 0.00 | 0.00 | 79 | 1019.4 |
| 20260906072542 | 48 | 252 | 0.0 | 3.0 | 0.00 | 0.00 | 0.00 | 79 | 1019.5 |
| 20260906072025 | 48 | 248 | 1.0 | 3.0 | 0.00 | 0.00 | 0.00 | 79 | 1019.5 |
| 20260906071630 | 48 | 248 | 2.0 | 3.0 | 0.00 | 0.00 | 0.00 | 79 | 1019.4 |
| 20260906071031 | 48 | 232 | 1.0 | 3.0 | 0.00 | 0.00 | 0.00 | 79 | 1019.4 |
| 20260906070530 | 48 | 265 | 1.0 | 3.0 | 0.00 | 0.00 | 0.00 | 78 | 1019.3 |
| 20260906070133 | 48 | 254 | 1.0 | 3.0 | 0.00 | 0.00 | 0.00 | 79 | 1019.5 |
| 20260906065531 | 49 | 242 | 2.0 | 3.0 | 0.00 | 0.00 | 0.00 | 78 | 1019.4 |
| 20260906065021 | 49 | 272 | 0.0 | 0.0 | 0.00 | 0.00 | 0.00 | 76 | 1019.4 |
| 20260906064623 | 49 | 253 | 0.0 | 0.0 | 0.00 | 0.00 | 0.00 | 76 | 1019.4 |
| 20260906064049 | 50 | 252 | 0.0 | 3.0 | 0.00 | 0.00 | 0.00 | 76 | 1019.4 |
| 20260906063535 | 50 | 254 | 2.0 | 3.0 | 0.00 | 0.00 | 0.00 | 74 | 1019.4 |
| 20260906063126 | 50 | 236 | 1.0 | 3.0 | 0.00 | 0.00 | 0.00 | 75 | 1019.4 |
| 20260906062537 | 50 | 266 | 1.0 | 3.0 | 0.00 | 0.00 | 0.00 | 74 | 1019.3 |
| 20260906062019 | 50 | 286 | 1.0 | 4.0 | 0.00 | 0.00 | 0.00 | 75 | 1019.3 |
| 20260906061606 | 50 | 232 | 1.0 | 4.0 | 0.00 | 0.00 | 0.00 | 74 | 1019.3 |
| 20260906061042 | 50 | 244 | 1.0 | 4.0 | 0.00 | 0.00 | 0.00 | 73 | 1019.4 |
| 20260906060520 | 51 | 239 | 2.0 | 4.0 | 0.00 | 0.00 | 0.00 | 73 | 1019.3 |
| 20260906060133 | 50 | 250 | 2.0 | 4.0 | 0.00 | 0.00 | 0.00 | 73 | 1019.4 |
| 20260906055537 | 50 | 259 | 2.0 | 4.0 | 0.00 | 0.00 | 0.00 | 74 | 1019.2 |
| 20260906055043 | 50 | 233 | 2.0 | 4.0 | 0.00 | 0.00 | 0.00 | 74 | 1019.3 |
| 20260906054609 | 51 | 238 | 2.0 | 4.0 | 0.00 | 0.00 | 0.00 | 74 | 1019.4 |
| 20260906054040 | 51 | 248 | 1.0 | 3.0 | 0.00 | 0.00 | 0.00 | 73 | 1019.3 |
| 20260906053539 | 51 | 238 | 0.0 | 3.0 | 0.00 | 0.00 | 0.00 | 73 | 1019.4 |
| 20260906053122 | 51 | 238 | 0.0 | 3.0 | 0.00 | 0.00 | 0.00 | 73 | 1019.4 |
| 20260906052526 | 51 | 238 | 1.0 | 2.0 | 0.00 | 0.00 | 0.00 | 75 | 1019.3 |
| 20260906052043 | 52 | 238 | 0.0 | 2.0 | 0.00 | 0.00 | 0.00 | 73 | 1019.2 |
| 20260906051609 | 52 | 237 | 0.0 | 2.0 | 0.00 | 0.00 | 0.00 | 73 | 1019.2 |
| 20260906051044 | 52 | 237 | 0.0 | 2.0 | 0.00 | 0.00 | 0.00 | 72 | 1019.1 |
| 20260906050531 | 52 | 237 | 0.0 | 0.0 | 0.00 | 0.00 | 0.00 | 72 | 1019.3 |
| 20260906050141 | 53 | 237 | 0.0 | 2.0 | 0.00 | 0.00 | 0.00 | 71 | 1019.3 |
| 20260906045539 | 53 | 237 | 0.0 | 2.0 | 0.00 | 0.00 | 0.00 | 72 | 1019.3 |
| 20260906045025 | 53 | 237 | 0.0 | 3.0 | 0.00 | 0.00 | 0.00 | 70 | 1019.3 |
| 20260906044555 | 54 | 237 | 1.0 | 3.0 | 0.00 | 0.00 | 0.00 | 70 | 1019.3 |
| 20260906044037 | 54 | 232 | 1.0 | 2.0 | 0.00 | 0.00 | 0.00 | 69 | 1019.3 |
| 20260906043532 | 54 | 219 | 0.0 | 2.0 | 0.00 | 0.00 | 0.00 | 68 | 1019.4 |
| 20260906043126 | 54 | 232 | 0.0 | 2.0 | 0.00 | 0.00 | 0.00 | 69 | 1019.4 |
| 20260906042548 | 54 | 78 | 0.0 | 4.0 | 0.00 | 0.00 | 0.00 | 69 | 1019.4 |
| 20260906042028 | 54 | 311 | 0.0 | 4.0 | 0.00 | 0.00 | 0.00 | 69 | 1019.4 |
| 20260906041632 | 54 | 166 | 0.0 | 2.0 | 0.00 | 0.00 | 0.00 | 68 | 1019.4 |
| 20260906041038 | 54 | 228 | 0.0 | 0.0 | 0.00 | 0.00 | 0.00 | 69 | 1019.3 |
| 20260906040537 | 55 | 228 | 0.0 | 1.0 | 0.00 | 0.00 | 0.00 | 69 | 1019.3 |
| 20260906040121 | 55 | 228 | 0.0 | 1.0 | 0.00 | 0.00 | 0.00 | 67 | 1019.3 |
| 20260906035542 | 55 | 215 | 0.0 | 0.0 | 0.00 | 0.00 | 0.00 | 66 | 1019.1 |
| 20260906035019 | 55 | 215 | 0.0 | 0.0 | 0.00 | 0.00 | 0.00 | 65 | 1019.1 |
| 20260906034628 | 55 | 215 | 0.0 | 0.0 | 0.00 | 0.00 | 0.00 | 66 | 1019.0 |
| 20260906034037 | 56 | 215 | 0.0 | 0.0 | 0.00 | 0.00 | 0.00 | 67 | 1019.1 |
| 20260906033545 | 56 | 215 | 0.0 | 0.0 | 0.00 | 0.00 | 0.00 | 64 | 1019.0 |
| 20260906033107 | 56 | 215 | 0.0 | 0.0 | 0.00 | 0.00 | 0.00 | 63 | 1018.9 |
| 20260906032533 | 57 | 215 | 0.0 | 1.0 | 0.00 | 0.00 | 0.00 | 64 | 1018.9 |
| 20260906032042 | 57 | 215 | 0.0 | 1.0 | 0.00 | 0.00 | 0.00 | 62 | 1018.8 |
| 20260906031600 | 57 | 215 | 0.0 | 0.0 | 0.00 | 0.00 | 0.00 | 60 | 1018.8 |
| 20260906031021 | 57 | 215 | 0.0 | 2.0 | 0.00 | 0.00 | 0.00 | 60 | 1018.7 |
| 20260906030546 | 58 | 215 | 0.0 | 3.0 | 0.00 | 0.00 | 0.00 | 60 | 1018.8 |
| 20260906030128 | 58 | 167 | 0.0 | 4.0 | 0.00 | 0.00 | 0.00 | 58 | 1018.7 |
| 20260906025527 | 58 | 175 | 0.0 | 0.0 | 0.00 | 0.00 | 0.00 | 60 | 1018.7 |
| 20260906025031 | 59 | 175 | 0.0 | 5.0 | 0.00 | 0.00 | 0.00 | 58 | 1018.6 |
| 20260906024616 | 59 | 175 | 0.0 | 5.0 | 0.00 | 0.00 | 0.00 | 57 | 1018.5 |
| 20260906024034 | 59 | 161 | 1.0 | 4.0 | 0.00 | 0.00 | 0.00 | 56 | 1018.6 |
| 20260906023538 | 59 | 130 | 1.0 | 4.0 | 0.00 | 0.00 | 0.00 | 55 | 1018.5 |
| 20260906023104 | 60 | 127 | 0.0 | 3.0 | 0.00 | 0.00 | 0.00 | 56 | 1018.4 |
| 20260906022530 | 60 | 142 | 0.0 | 6.0 | 0.00 | 0.00 | 0.00 | 53 | 1018.3 |
| 20260906022044 | 61 | 179 | 0.0 | 5.0 | 0.00 | 0.00 | 0.00 | 52 | 1018.3 |
| 20260906021625 | 61 | 150 | 0.0 | 2.0 | 0.00 | 0.00 | 0.00 | 52 | 1018.3 |
| 20260906021032 | 62 | 134 | 0.0 | 7.0 | 0.00 | 0.00 | 0.00 | 51 | 1018.4 |
| 20260906020524 | 62 | 338 | 1.0 | 7.0 | 0.00 | 0.00 | 0.00 | 49 | 1018.4 |
| 20260906020149 | 63 | 160 | 0.0 | 2.0 | 0.00 | 0.00 | 0.00 | 51 | 1018.4 |
| 20260906015526 | 63 | 194 | 0.0 | 2.0 | 0.00 | 0.00 | 0.00 | 49 | 1018.2 |
| 20260906015018 | 63 | 161 | 0.0 | 2.0 | 0.00 | 0.00 | 0.00 | 46 | 1018.0 |
| 20260906014627 | 63 | 303 | 0.0 | 2.0 | 0.00 | 0.00 | 0.00 | 47 | 1018.0 |
| 20260906014030 | 64 | 179 | 0.0 | 2.0 | 0.00 | 0.00 | 0.00 | 47 | 1017.9 |
| 20260906013525 | 64 | 159 | 0.0 | 2.0 | 0.00 | 0.00 | 0.00 | 49 | 1017.8 |
| 20260906013127 | 64 | 76 | 0.0 | 0.0 | 0.00 | 0.00 | 0.00 | 44 | 1017.8 |
| 20260906012536 | 64 | 76 | 0.0 | 0.0 | 0.00 | 0.00 | 0.00 | 44 | 1017.7 |
| 20260906012024 | 64 | 76 | 0.0 | 0.0 | 0.00 | 0.00 | 0.00 | 43 | 1017.7 |
| 20260906011624 | 64 | 76 | 0.0 | 0.0 | 0.00 | 0.00 | 0.00 | 50 | 1017.7 |
| 20260906011031 | 64 | 75 | 0.0 | 1.0 | 0.00 | 0.00 | 0.00 | 44 | 1017.6 |
| 20260906010544 | 64 | 75 | 0.0 | 2.0 | 0.00 | 0.00 | 0.00 | 46 | 1017.7 |
| 20260906010139 | 64 | 75 | 0.0 | 2.0 | 0.00 | 0.00 | 0.00 | 42 | 1017.6 |
| 20260906005524 | 63 | 306 | 0.0 | 3.0 | 0.00 | 0.00 | 0.00 | 42 | 1017.7 |
| 20260906005033 | 63 | 9 | 0.0 | 3.0 | 0.00 | 0.00 | 0.00 | 44 | 1017.8 |
| 20260906004620 | 64 | 199 | 0.0 | 2.0 | 0.00 | 0.00 | 0.00 | 47 | 1017.7 |
| 20260906004036 | 64 | 234 | 0.0 | 2.0 | 0.00 | 0.00 | 0.00 | 46 | 1017.5 |
| 20260906003544 | 64 | 310 | 0.0 | 3.0 | 0.00 | 0.00 | 0.00 | 44 | 1017.6 |
| 20260906003123 | 64 | 214 | 1.0 | 3.0 | 0.00 | 0.00 | 0.00 | 44 | 1017.7 |
| 20260906002523 | 64 | 323 | 0.0 | 2.0 | 0.00 | 0.00 | 0.00 | 47 | 1017.6 |
| 20260906002021 | 64 | 337 | 0.0 | 2.0 | 0.00 | 0.00 | 0.00 | 43 | 1017.6 |
| 20260906001637 | 64 | 286 | 0.0 | 1.0 | 0.00 | 0.00 | 0.00 | 47 | 1017.5 |
| 20260906001040 | 64 | 286 | 0.0 | 2.0 | 0.00 | 0.00 | 0.00 | 47 | 1017.5 |
| 20260906000526 | 64 | 288 | 0.0 | 5.0 | 0.00 | 0.00 | 0.00 | 44 | 1017.5 |
| 20260906000137 | 64 | 200 | 0.0 | 5.0 | 0.00 | 0.00 | 0.00 | 44 | 1017.5 |
| 20260905235541 | 64 | 65 | 0.0 | 4.0 | 0.00 | 0.00 | 0.00 | 42 | 1017.6 |
| 20260905235028 | 64 | 323 | 2.0 | 5.0 | 0.00 | 0.00 | 0.00 | 41 | 1017.7 |
| 20260905234641 | 65 | 360 | 2.0 | 4.0 | 0.00 | 0.00 | 0.00 | 43 | 1017.6 |
| 20260905234033 | 65 | 337 | 0.0 | 3.0 | 0.00 | 0.00 | 0.00 | 40 | 1017.5 |
| 20260905233544 | 66 | 300 | 1.0 | 4.0 | 0.00 | 0.00 | 0.00 | 39 | 1017.5 |
| 20260905233104 | 66 | 177 | 1.0 | 4.0 | 0.00 | 0.00 | 0.00 | 37 | 1017.5 |
| 20260905232533 | 67 | 296 | 0.0 | 3.0 | 0.00 | 0.00 | 0.00 | 35 | 1017.4 |
| 20260905232030 | 67 | 169 | 0.0 | 3.0 | 0.00 | 0.00 | 0.00 | 36 | 1017.4 |
| 20260905231640 | 67 | 295 | 0.0 | 4.0 | 0.00 | 0.00 | 0.00 | 37 | 1017.5 |
| 20260905231044 | 67 | 180 | 2.0 | 5.0 | 0.00 | 0.00 | 0.00 | 38 | 1017.3 |
| 20260905230548 | 66 | 146 | 2.0 | 7.0 | 0.00 | 0.00 | 0.00 | 40 | 1017.5 |
| 20260905230129 | 66 | 212 | 1.0 | 7.0 | 0.00 | 0.00 | 0.00 | 38 | 1017.5 |
| 20260905225533 | 66 | 205 | 0.0 | 1.0 | 0.00 | 0.00 | 0.00 | 37 | 1017.4 |
| 20260905225033 | 67 | 262 | 0.0 | 2.0 | 0.00 | 0.00 | 0.00 | 38 | 1017.6 |